Location: Esterri de Aneo
(42.6284°N, 1.1223°E)
Time: 00:50:18
(UTC+00:00)

Cosmos-2242 - Pass Details

Date: 11 December 2025
Orbit: 566 x 591 km, 82.5° (Epoch: 19 January)

Event Time Altitude Azimuth Distance (km) Brightness Sun altitude
Rises 18:29:08 0° 194° (SSW) 2,806 6.8 -22.5°
Reaches altitude 10° 18:31:20 10° 197° (SSW) 1,912 5.9 -22.9°
Maximum altitude 18:35:32 65° 280° (W) 652 3.3 -23.7°
Enters shadow 18:37:08 36° 349° (N) 946 3.9 -24.0°
